Location: Larkspur
(54.4391°N, 113.7691°W)
Time: 14:26:22
(UTC+00:00)

Oscar 19 - Pass Details

Date: 04 December 2023
Orbit: 771 x 789 km, 98.9° (Epoch: 01 March)

Event Time Altitude Azimuth Distance (km) Brightness Sun altitude
Rises 00:28:26 0° 205° (SSW) 3,237 14.7 -10.1°
Reaches altitude 10° 00:31:16 10° 221° (SW) 2,315 14.2 -10.5°
Maximum altitude 00:35:07 21° 270° (W) 1,676 13.3 -11.0°
Drops below altitude 10° 00:38:59 10° 319° (NW) 2,331 13.3 -11.5°
Sets 00:41:52 0° 336° (NNW) 3,266 13.9 -11.9°
